カタログに戻る

DELTA 1 DEB

運用中SSO
NORAD 7012·DEBRIS·🇺🇸 United States

打ち上げ Nov 6, 1973 から Vandenberg Space Force Base

Loading…

次のパス (今後24時間)

TLE

最新Source: Space-Track

元期: Sep 14, 2026, 15:01 UTC

1 07012U 73086C   26257.62618169  .00000029  00000-0  49584-3 0  9999
2 07012 101.7753 213.6254 0059817 316.1303 219.5282 12.47743191405621

AllMySatでDELTA 1 DEBをリアルタイム追跡

Download on the App Store